Location: Middlebury
(44.0153°N, 73.1678°W)
Time: 21:43:32
(UTC-04:00)

ISS - Pass Details

Date: 28 June 2021
Orbit: 419 x 421 km, 51.6° (Epoch: 03 August)

Event Time Altitude Azimuth Distance (km) Brightness Sun altitude
Exits shadow 03:40:03 15° 174° (S) 1,228 -1.8 -13.0°
Maximum altitude 03:41:43 21° 135° (SE) 1,000 -1.9 -12.8°
Drops below altitude 10° 03:44:20 10° 84° (E) 1,500 -0.3 -12.5°
Sets 03:46:45 0° 68° (ENE) 2,368 1.2 -12.2°
